Tracking 31027 objects as of 19-Jul-2025
HD Live streaming from Space Station
objects crossing your sky now

INSAT 3B

Track INSAT 3B now!
INSAT 3B is classified as:


NORAD ID: 26108
Int'l Code: 2000-016B
Perigee: 35,949.5 km
Apogee: 35,984.1 km
Inclination: 10.2 °
Period: 1,444.9 minutes
Semi major axis: 42337 km
RCS: 5.0119 m2 (large)
Launch date: March 21, 2000
Source: India (IND)
Launch site: FRENCH GUIANA (FRGUI)

Voice, data and fax transmissions.
Your satellite tracking list
STARLINK-4010
Track 1 satellite(s)




NASA's NSSDC Master Catalog

Two Line Element Set (TLE):
1 26108U 00016B   25199.17213097  .00000103  00000-0  00000-0 0  9994
2 26108  10.1650  48.4476 0004081 196.0971 333.4766  0.99657691 48108
Source of the keplerian elements: AFSPC